Regional Weather Roundup
Issued by NWS

Home | Current Version | Previous Version | Text Only | Print | Product List | Glossary On
Versions: 1 2 3 4 5 6 7 8 9 10 11 12 13 14 15 16 17 18 19 20 21 22 23 24 25 26 27 28 29 30 31 32 33 34 35 36 37 38 39 40 41 42 43 44 45 46 47 48 49 50
000
ASUS43 KLOT 022010
RWRIL

ILLINOIS REGIONAL WEATHER ROUNDUP
NATIONAL WEATHER SERVICE CHICAGO/ROMEOVILLE IL
200 PM CST MON MAR 02 2015

NOTE: "FAIR" INDICATES FEW OR NO CLOUDS BELOW 12,000 FEET WITH NO
SIGNIFICANT WEATHER AND/OR OBSTRUCTIONS TO VISIBILITY.

* THESE STATIONS ARE NOT UNDER NWS QUALITY CONTROL. THEY ALSO MAY NOT
  REPORT WEATHER SUCH AS PRECIPITATION OR FOG.

ILZ001-002-007-009-015-016-024-022100-
NORTHWEST ILLINOIS

CITY           SKY/WX    TMP DP  RH WIND       PRES   REMARKS
MOLINE         FAIR      28  16  60 S7        30.44  WCI  21
STERLING*      FAIR      25  16  68 E5        30.46F WCI  19
SAVANNA*       FAIR      29  15  54 S5        30.45F WCI  24
$$

ILZ003-004-008-010-011-017-018-022100-
NORTH CENTRAL ILLINOIS

CITY           SKY/WX    TMP DP  RH WIND       PRES   REMARKS
ROCKFORD       CLOUDY    26  13  57 S6        30.46  WCI  19
FREEPORT*      FAIR      24  13  64 SE5       30.46F WCI  18
ROCHELLE*      FAIR      25  15  66 CALM      30.46F
DE KALB*       FAIR      25  14  63 S5        30.45F WCI  19
PERU*          FAIR      29  17  60 NE5       30.46F WCI  24
$$

ILZ005-006-012>014-019>023-022100-
NORTHEAST ILLINOIS

CITY           SKY/WX    TMP DP  RH WIND       PRES   REMARKS
CHICAGO-OHARE  CLOUDY    30  11  45 CALM      30.45
CHICAGO-MIDWAY PTSUNNY   33  12  41 CALM      30.46
AURORA         FAIR      27  12  53 CALM      30.47
LANSING*       FAIR      30  13  49 CALM      30.46F
JOLIET*        FAIR      29  13  50 SW3       30.47F
WAUKEGAN       FAIR      28  10  46 VRB3      30.44
DUPAGE AIRPORT FAIR      29  13  51 CALM      30.44
KANKAKEE*      FAIR      27  15  60 SE5       30.48F WCI  21
WHEELING       FAIR      31  10  41 CALM      30.46
MORRIS*        FAIR      26  17  71 CALM      30.46F
ROMEOVILLE*    FAIR      30  13  48 CALM      30.46F
NORTHERLY ISL    N/A     27  16  63 E7          N/A  WCI  20
$$

LMZ740>746-022100-
SOUTHERN LAKE MICHIGAN

STATION/POSITION SKY/WX   TEMP    WIND        PRES    VSBY  WAVE
                          AIR SEA DIR/SP/G                  HT/PER
                          (F)     (DEG/KT/KT) (MB)    (MI)  (FT/S)
WAUKEGAN HARBOR            25     110/ 18/ 25   N/A
HARRISON CRIB              25      80/  7/  8   N/A
BURNHAM HARBOR             26      90/  5/  7   N/A
CALUMET HARBOR             27      70/  7/  9 1030.3F
MICHIGAN CITY              32     310/  2/  4   N/A
$$

ILZ025>027-034>036-040-047-049-050-058-095>099-022100-
WEST-CENTRAL ILLINOIS

CITY           SKY/WX    TMP DP  RH WIND       PRES   REMARKS
QUINCY         CLOUDY    33  17  51 SE5       30.43  WCI  29
GALESBURG*     CLOUDY    28  17  64 CALM      30.44F
MACOMB*        CLOUDY    28  18  65 CALM      30.47F
JACKSONVILLE*  CLOUDY    32  22  66 E6        30.46F WCI  27
PITTSFIELD*    FAIR      34  20  56 SE3       30.45F
$$

ILZ028>032-037-038-041>044-048-051>054-059>061-022100-
CENTRAL ILLINOIS

CITY           SKY/WX    TMP DP  RH WIND       PRES   REMARKS
PONTIAC        FAIR      24  17  74 SE5       30.47F WCI  18
BLOOMINGTON    FAIR      28  18  66 E7        30.45  WCI  21
DECATUR        FAIR      27  19  72 E8        30.46  WCI  19
PEORIA         FAIR      34  16  47 SW3       30.45
LACON*         FAIR      27  15  61 E7        30.46F WCI  19
LINCOLN*       CLOUDY    31  21  65 CALM      30.48F
SPRINGFIELD    CLOUDY    32  20  61 SE8       30.46  WCI  25
TAYLORVILLE    PTSUNNY   30  18  59 SE7       30.46F WCI  23
$$

ILZ033-039-045-046-055>057-062-063-022100-
EAST-CENTRAL ILLINOIS

CITY           SKY/WX    TMP DP  RH WIND       PRES   REMARKS
CHAMPAIGN      FAIR      24  17  74 E6        30.46  WCI  17
DANVILLE*      FAIR      25  17  72 NE3       30.44F
RANTOUL*       FAIR      28  19  68 SE5       30.46F WCI  23
MATTOON        FAIR      30  20  66 N8        30.44  WCI  22
PARIS*         FAIR      30  22  72 CALM      30.47F
$$

ILZ079-100>102-022100-
SOUTHWEST ILLINOIS

CITY           SKY/WX    TMP DP  RH WIND       PRES   REMARKS
BELLEVILLE     FAIR      34  19  54 E8        30.46  WCI  27
CAHOKIA*       FAIR      34  18  52 E8        30.46  WCI  27
SPARTA*        FAIR      32  19  58 CALM      30.46F
$$

ILZ064>066-069>071-074>076-080>082-084>086-088>090-092>094-022100-
SOUTH-CENTRAL ILLINOIS

CITY           SKY/WX    TMP DP  RH WIND       PRES   REMARKS
CARBONDALE     FAIR      38  20  48 NE9       30.44  WCI  31
CAIRO*         FAIR      39  21  47 NE12      30.43F WCI  32
EFFINGHAM*     FAIR      32  12  43 E6        30.48F WCI  27
MARION         PTSUNNY   37  21  52 E12       30.45  WCI  30
MT. VERNON     FAIR      32  18  55 NE8       30.46F WCI  25
CENTRALIA*     FAIR      34  17  50 NE6       30.46F WCI  29
SALEM*         FAIR      35  18  50 SE5       30.46F WCI  30
METROPOLIS*    FAIR      39  19  45 NE6       30.42F WCI  35
$$

ILZ067-068-072-073-078-083-087-091-022100-
SOUTHEAST ILLINOIS

CITY           SKY/WX    TMP DP  RH WIND       PRES   REMARKS
LAWRENCEVILLE  FAIR      32  18  56 N8        30.48  WCI  25
FLORA*         FAIR      32  17  53 E5        30.47F WCI  27
FAIRFIELD*     FAIR      33  18  54 E6        30.46F WCI  27
HARRISBURG*    FAIR      36  22  57 NE7       30.46F WCI  30
ROBINSON*      FAIR      32  19  59 CALM      30.49F
CARMI*         FAIR      36  26  65 NE6       30.46F WCI  32
$$

ABBREVIATIONS USED IN REMARKS
   TC - TEMPERATURE IN CELSIUS
  WCI - WIND CHILL INDEX
   HX - HEAT INDEX
  VSB - VISIBILITY
$$




USA.gov is the U.S. government's official web portal to all federal, state and local government web resources and services.